Waarnemingen

Advertentie
Mijn weer
Lichtenhain-Mittelndorf, Duitsland (10591): temperatuur & dauwpunt: 14.04.2018 12:00:00 - 20.04.2018 12:00:00 (CEST)Lichtenhain-Mittelndorf, Duitsland (10591): temperatuur 5cm & temperatuur -5cm: 14.04.2018 12:00:00 - 20.04.2018 12:00:00 (CEST)Lichtenhain-Mittelndorf, Duitsland (10591): temperatuur -20cm & temperatuur -100cm: 14.04.2018 12:00:00 - 20.04.2018 12:00:00 (CEST)Lichtenhain-Mittelndorf, Duitsland (10591): windsnelheid & windstoten: 14.04.2018 12:00:00 - 20.04.2018 12:00:00 (CEST)Lichtenhain-Mittelndorf, Duitsland (10591): windrichting: 14.04.2018 12:00:00 - 20.04.2018 12:00:00 (CEST)Lichtenhain-Mittelndorf, Duitsland (10591): luchtdruk: 14.04.2018 12:00:00 - 20.04.2018 12:00:00 (CEST)Lichtenhain-Mittelndorf, Duitsland (10591): zicht: 14.04.2018 12:00:00 - 20.04.2018 12:00:00 (CEST)Lichtenhain-Mittelndorf, Duitsland (10591): Zonneschijnduur: 14.04.2018 12:00:00 - 20.04.2018 12:00:00 (CEST)Lichtenhain-Mittelndorf, Duitsland (10591): neerslag: 14.04.2018 12:00:00 - 20.04.2018 12:00:00 (CEST)
Datum & Tijd tt [°C] td [°C] tt 5cm [°C] tt -5cm [°C] tt -20cm [°C] tt -100cm [°C] ff [km/u] ff [kn] fx [km/u] fx [kn] dd ppp [hPa] vv [km] sd [min] rr [mm]
20.04.2018 12:00:00 22,0 11,7 24,4 22,6 13,8 9,7 17 9 30 16 ZZO 1025,5 19 60 0,0
20.04.2018 11:00:00 20,4 11,1 22,3 19,5 13,1 9,7 22 12 40 22 ZZO 1026,0 22 60 0,0
20.04.2018 10:00:00 18,9 11,1 20,2 17,3 12,6 9,7 22 12 31 17 ZZO 1026,4 19 60 0,0
20.04.2018 09:00:00 17,4 10,6 18,2 14,5 12,5 9,7 14 8 23 13 ZZO 1026,7 28 60 0,0
20.04.2018 08:00:00 16,0 9,9 15,0 11,0 12,6 9,7 10 6 18 10 ZO 1027,1 32 60 0,0
20.04.2018 07:00:00 13,7 10,0 11,8 10,2 12,9 9,7 9 5 15 8 OZO 1027,5 31 28 0,0
20.04.2018 06:00:00 12,3 9,9 9,8 9,7 13,3 9,6 8 5 12 6 O 1027,6 28 0 0,0
20.04.2018 05:00:00 11,0 9,5 8,5 10,2 13,7 9,6 5 3 9 5 O 1028,0 21 0 0,0
20.04.2018 04:00:00 12,5 9,9 8,4 10,7 14,1 9,6 3 2 7 4 O 1028,2 24 0 0,0
20.04.2018 03:00:00 12,5 9,9 8,5 11,1 14,6 9,6 3 2 6 3 ZO 1028,3 23 0 0,0
20.04.2018 02:00:00 13,7 9,8 9,2 11,7 15,1 9,6 3 2 5 3 OZO 1028,6 27 0 0,0
20.04.2018 01:00:00 13,6 9,8 10,5 12,4 15,6 9,6 4 2 5 3 ONO 1028,9 23 0 0,0
20.04.2018 00:00:00 13,9 9,8 10,1 13,3 16,1 9,6 3 2 15 8 ZZW 1029,2 27 0 0,0
19.04.2018 23:00:00 15,9 9,9 11,2 14,1 16,6 9,6 9 5 13 7 O 1029,1 34 0 0,0
19.04.2018 22:00:00 17,2 9,5 14,5 15,2 17,1 9,6 7 4 14 8 NNO 1029,1 33 0 0,0
19.04.2018 21:00:00 18,8 9,4 15,3 16,4 17,6 9,6 13 7 19 10 ONO 1028,7 39 0 0,0
19.04.2018 20:00:00 19,4 8,7 16,1 18,2 17,9 9,6 12 6 24 13 ONO 1028,4 38 36 0,0
19.04.2018 19:00:00 20,8 8,1 19,5 20,5 18,0 9,6 16 9 25 13 NO 1028,5 47 59 0,0
19.04.2018 18:00:00 22,6 7,6 21,9 22,8 17,8 9,5 15 8 22 12 NNO 1028,4 42 60 0,0
19.04.2018 17:00:00 23,1 8,2 23,4 24,4 17,4 9,5 13 7 24 13 NO 1028,5 44 60 0,0
19.04.2018 16:00:00 23,3 9,7 24,7 25,1 16,8 9,5 10 5 21 11 NNO 1029,0 25 60 0,0
19.04.2018 15:00:00 22,4 9,7 24,7 25,2 15,9 9,5 12 6 22 12 NNW 1029,7 21 60 0,0
19.04.2018 14:00:00 23,0 10,5 26,0 25,6 14,9 9,5 4 2 18 10 N 1030,0 19 60 0,0
19.04.2018 13:00:00 22,6 9,1 25,2 24,7 13,7 9,5 4 2 16 9 ONO 1030,6 25 60 0,0
19.04.2018 12:00:00 20,8 8,5 24,0 23,2 12,6 9,5 3 2 10 5 N 1031,3 22 60 0,0
19.04.2018 11:00:00 20,3 9,4 23,7 20,5 11,6 9,5 3 1 7 4 ZZO 1031,3 20 60 0,0
19.04.2018 10:00:00 17,4 9,2 19,9 16,7 10,9 9,5 3 2 6 3 ZO 1031,6 31 60 0,0
19.04.2018 09:00:00 14,4 9,0 15,7 12,4 10,8 9,4 2 1 6 3 ONO 1032,1 22 60 0,0
19.04.2018 08:00:00 10,7 7,5 9,7 8,2 11,0 9,4 0 0 8 5 N 1032,4 13 60 0,0
19.04.2018 07:00:00 8,7 6,2 6,9 7,6 11,4 9,4 6 3 10 5 O 1032,8 21 18 0,0
19.04.2018 06:00:00 7,8 5,8 5,9 7,7 11,8 9,4 4 2 7 4 ONO 1032,8 14 0 0,0
19.04.2018 05:00:00 8,2 6,0 6,9 8,1 12,2 9,4 5 3 9 5 O 1033,0 19 0 0,0
19.04.2018 04:00:00 8,5 6,5 5,4 8,5 12,6 9,4 4 2 6 3 ZO 1033,2 18 0 0,0
19.04.2018 03:00:00 9,5 6,6 7,0 9,1 13,1 9,4 2 1 4 2 ONO 1033,1 22 0 0,0
19.04.2018 02:00:00 9,7 6,8 7,8 9,7 13,6 9,4 3 1 8 5 O 1033,4 19 0 0,0
19.04.2018 01:00:00 11,0 7,1 7,6 10,3 14,2 9,4 4 2 7 4 OZO 1033,2 30 0 0,0
19.04.2018 00:00:00 12,1 7,4 10,7 11,1 14,7 9,4 5 3 7 4 O 1033,0 26 0 0,0
18.04.2018 23:00:00 13,3 7,6 10,3 12,0 15,3 9,4 5 3 8 4 OZO 1032,7 40 0 0,0
18.04.2018 22:00:00 14,8 7,7 12,4 13,2 15,9 9,4 4 2 11 6 NO 1032,4 35 0 0,0
18.04.2018 21:00:00 16,6 7,2 13,8 14,7 16,3 9,4 8 5 11 6 NNO 1031,8 36 0 0,0
18.04.2018 20:00:00 18,4 6,6 15,7 16,6 16,7 9,4 8 4 10 5 N 1031,2 42 43 0,0
18.04.2018 19:00:00 20,0 5,3 17,9 18,8 16,8 9,4 8 5 19 10 N 1031,3 44 60 0,0
18.04.2018 18:00:00 20,7 4,9 20,3 21,0 16,6 9,4 8 5 22 12 NNW 1031,3 41 60 0,0
18.04.2018 17:00:00 21,0 3,0 21,7 22,4 16,2 9,4 14 8 21 12 NW 1031,6 35 60 0,0
18.04.2018 16:00:00 21,2 2,3 23,2 24,2 15,5 9,4 10 6 19 10 NNW 1031,7 43 60 0,0
18.04.2018 15:00:00 20,7 3,4 24,4 24,8 14,5 9,4 6 4 12 6 WZW 1032,1 47 60 0,0
18.04.2018 14:00:00 19,8 4,0 22,8 24,3 13,4 9,4 8 4 14 8 NW 1032,3 36 60 0,0
18.04.2018 13:00:00 19,1 3,4 23,6 23,4 12,2 9,4 5 3 10 6 NW 1032,7 48 60 0,0
18.04.2018 12:00:00 19,0 4,3 23,3 21,5 11,0 9,4 3 2 10 5 WNW 1032,8 42 60 0,0
18.04.2018 11:00:00 17,0 3,5 20,4 18,6 9,9 9,4 3 1 8 4 O 1033,0 30 60 0,0
18.04.2018 10:00:00 14,8 8,4 16,7 14,7 9,3 9,4 5 3 9 5 ZZO 1033,0 11 60 0,0
18.04.2018 09:00:00 12,1 9,0 12,2 10,5 9,1 9,4 3 1 10 5 O 1033,0 9 60 0,0
18.04.2018 08:00:00 7,7 6,7 7,2 6,0 9,3 9,4 4 2 11 6 O 1033,4 3,3 60 0,0
18.04.2018 07:00:00 4,7 4,3 3,9 5,6 9,7 9,4 5 3 12 6 ZO 1033,2 1,4 22 0,0
18.04.2018 06:00:00 5,5 5,1 3,5 5,8 10,0 9,3 7 4 14 8 OZO 1032,8 2,4 0 0,0
18.04.2018 05:00:00 6,3 6,1 3,3 6,2 10,4 9,3 5 3 11 6 O 1032,5 2,9 0 0,0
18.04.2018 04:00:00 6,1 5,9 4,1 6,5 10,9 9,3 8 4 11 6 OZO 1032,1 2,6 0 0,0
18.04.2018 03:00:00 6,7 6,3 4,4 7,1 11,3 9,3 3 1 11 6 ZO 1032,2 2,5 0 0,0
18.04.2018 02:00:00 7,7 7,1 5,1 7,7 11,8 9,3 3 2 7 4 ONO 1031,9 5 0 0,0
18.04.2018 01:00:00 7,5 6,8 5,0 8,2 12,3 9,3 6 3 7 4 OZO 1031,3 3,4 0 0,0
18.04.2018 00:00:00 8,4 7,2 6,0 9,0 12,8 9,3 0 0 8 4 N 1031,1 6 0 0,0
17.04.2018 23:00:00 9,2 7,8 6,8 9,8 13,3 9,3 0 0 6 3 N 1030,5 8 0 0,0
17.04.2018 22:00:00 10,0 7,9 8,3 10,9 13,8 9,3 2 1 8 5 OZO 1030,0 8 0 0,0
17.04.2018 21:00:00 12,0 8,0 9,4 12,2 14,2 9,3 8 4 10 5 NNO 1029,0 11 0 0,0
17.04.2018 20:00:00 13,4 7,9 11,2 14,0 14,4 9,3 9 5 12 7 NNW 1028,0 14 44 0,0
17.04.2018 19:00:00 14,6 7,6 14,0 16,5 14,3 9,3 9 5 16 9 NNW 1027,5 15 58 0,0
17.04.2018 18:00:00 15,4 9,2 16,1 18,5 14,0 9,3 11 6 20 11 NNW 1027,3 10 60 0,0
17.04.2018 17:00:00 15,6 9,5 16,7 19,5 13,3 9,3 10 5 16 9 NNW 1027,2 9 46 0,0
17.04.2018 16:00:00 15,0 9,2 17,3 20,4 12,5 9,3 6 4 14 8 NW 1027,2 7 59 0,0
17.04.2018 15:00:00 14,4 9,8 17,9 19,0 11,9 9,3 8 4 17 9 N 1027,1 6 36 0,0
17.04.2018 14:00:00 12,7 9,9 15,6 14,9 11,6 9,3 10 5 18 10 NNW 1027,4 4,4 2 0,0
17.04.2018 13:00:00 11,3 9,8 12,4 13,1 11,4 9,3 13 7 24 13 N 1027,5 3,3 0 0,0
17.04.2018 12:00:00 11,3 9,6 12,4 13,0 11,2 9,3 15 8 22 12 NW 1027,2 3,3 0 0,0
17.04.2018 11:00:00 10,8 9,6 11,9 12,6 11,0 9,3 17 9 31 17 NW 1026,8 2,6 0 0,0
17.04.2018 10:00:00 10,8 9,9 11,6 12,3 10,8 9,3 21 11 31 17 NNW 1025,9 2,1 0 0,0
17.04.2018 09:00:00 10,5 10,0 11,6 11,3 10,8 9,3 12 6 18 10 WNW 1025,0 1,8 0 0,0
17.04.2018 08:00:00 10,2 9,9 10,5 10,5 10,8 9,3 10 5 16 9 WNW 1024,3 0,8 0 0,0
17.04.2018 07:00:00 10,1 9,9 10,2 10,2 10,8 9,3 10 5 19 11 WNW 1023,2 0,2 0 0,0
17.04.2018 06:00:00 10,0 9,7 10,0 9,9 10,9 9,3 11 6 16 9 WNW 1022,5 1,4 0 0,0
17.04.2018 05:00:00 9,6 9,5 9,7 9,6 11,1 9,3 4 2 9 5 W 1021,8 0,3 0 0,0
17.04.2018 04:00:00 10,0 9,8 7,6 9,9 11,2 9,3 3 2 8 5 W 1021,3 2,0 0 0,0
17.04.2018 03:00:00 10,2 10,0 9,4 10,1 11,3 9,3 4 2 8 5 ZZW 1020,8 0,1 0 0,0
17.04.2018 02:00:00 10,5 10,1 9,8 10,3 11,5 9,3 6 3 10 6 WNW 1020,5 2,6 0 0,0
17.04.2018 01:00:00 10,4 10,2 9,4 10,6 11,6 9,3 5 3 16 9 W 1019,8 1,0 0 0,0
17.04.2018 00:00:00 10,8 10,5 10,4 10,8 11,7 9,3 6 4 13 7 W 1019,0 1,4 0 0,0
16.04.2018 23:00:00 10,7 10,3 10,3 11,1 11,8 9,2 8 4 16 9 W 1018,4 2,7 0 0,0
16.04.2018 22:00:00 10,8 10,3 10,8 11,3 11,9 9,2 8 4 20 11 W 1017,9 2,3 0 0,0
16.04.2018 21:00:00 10,9 10,2 10,7 11,4 12,0 9,2 16 8 26 14 NW 1017,3 5 0 0,0
16.04.2018 20:00:00 11,2 10,5 11,0 11,7 12,1 9,2 16 9 34 18 NW 1016,1 4,2 0 0,1
16.04.2018 19:00:00 11,5 10,9 11,4 12,1 12,1 9,2 17 9 28 15 NW 1015,1 3,7 0 0,4
16.04.2018 18:00:00 11,7 11,1 11,7 12,3 12,1 9,2 16 9 25 14 NW 1014,7 2,4 0 1,3
16.04.2018 17:00:00 11,6 11,2 11,8 12,2 12,2 9,2 13 7 30 16 NW 1014,4 1,7 0 4,4
16.04.2018 16:00:00 11,6 11,1 11,7 12,4 12,2 9,2 11 6 24 13 NW 1013,8 1,1 0 1,6
16.04.2018 15:00:00 11,8 11,4 12,3 12,6 12,2 9,2 15 8 24 13 NW 1013,1 2,4 0 5,3
16.04.2018 14:00:00 11,6 11,1 11,8 12,4 12,1 9,2 10 5 21 11 NW 1013,2 1,4 0 3,5
16.04.2018 13:00:00 11,9 11,1 11,8 12,5 12,1 9,2 12 6 20 11 NNW 1012,8 3,0 0 0,2
16.04.2018 12:00:00 11,9 11,4 12,3 12,5 12,1 9,2 11 6 21 12 NW 1012,5 1,5 0 0,7
16.04.2018 11:00:00 11,6 11,2 12,1 12,4 12,1 9,2 6 3 16 9 W 1012,6 1,6 0 0,1
16.04.2018 10:00:00 11,3 10,9 11,6 12,1 12,1 9,2 8 4 16 9 W 1012,3 1,9 0 0,9
16.04.2018 09:00:00 11,3 11,0 11,4 11,9 12,2 9,2 8 4 19 10 W 1012,1 1,2 0 1,2
16.04.2018 08:00:00 11,1 10,3 11,1 11,8 12,3 9,2 8 4 19 10 W 1011,6 4,1 0 0,1
16.04.2018 07:00:00 11,0 10,4 10,9 11,9 12,4 9,2 6 3 14 7 ZW 1010,7 6 0 0,0
16.04.2018 06:00:00 12,1 11,8 12,0 12,1 12,4 9,2 2 1 10 5 NW 1010,3 3,1 0 0,2
16.04.2018 05:00:00 13,2 12,3 12,6 12,1 12,5 9,1 9 5 11 6 O 1010,1 5 0 0,5
16.04.2018 04:00:00 13,8 11,6 12,5 12,2 12,6 9,1 5 3 12 7 ONO 1009,7 8 0 0,3
16.04.2018 03:00:00 14,4 11,0 12,6 12,1 12,7 9,1 8 5 14 8 ZO 1010,1 12 0 0,1
16.04.2018 02:00:00 12,7 9,4 11,4 12,0 12,9 9,1 5 3 8 5 N 1010,4 14 0 0,1
16.04.2018 01:00:00 13,8 9,4 12,7 12,0 13,1 9,1 4 2 7 4 ONO 1010,5 18 0 0,0
16.04.2018 00:00:00 13,0 9,4 11,8 12,2 13,4 9,1 3 1 7 4 O 1010,8 23 0 0,0
15.04.2018 23:00:00 14,2 9,1 11,8 12,3 13,7 9,1 4 2 9 5 O 1010,7 27 0 0,0
15.04.2018 22:00:00 15,4 9,0 13,4 12,9 13,9 9,1 6 3 8 5 NO 1011,1 34 0 0,0
15.04.2018 21:00:00 16,1 9,0 13,8 13,6 14,1 9,1 5 3 15 8 O 1011,1 34 0 0,0
15.04.2018 20:00:00 17,2 7,8 15,3 14,6 14,2 9,1 9 5 12 6 ZO 1010,7 40 0 0,0
15.04.2018 19:00:00 18,4 8,3 16,7 15,9 14,2 9,1 3 2 16 9 Z 1010,2 41 35 0,0
15.04.2018 18:00:00 18,3 8,1 17,6 16,4 14,1 9,1 9 5 19 11 ZZO 1010,8 43 12 0,0
15.04.2018 17:00:00 18,7 7,2 18,2 17,2 13,7 9,1 12 7 29 16 Z 1011,1 38 9 0,0
15.04.2018 16:00:00 19,3 8,5 19,9 19,0 13,2 9,1 14 7 29 16 Z 1011,4 32 60 0,0
15.04.2018 15:00:00 18,2 8,5 20,0 17,3 12,8 9,1 18 10 32 17 ZZO 1012,2 23 25 0,0
15.04.2018 14:00:00 17,7 9,0 18,8 17,1 12,4 9,1 12 6 28 15 ZZO 1013,0 37 0 0,0
15.04.2018 13:00:00 16,7 8,0 17,5 16,5 11,8 9,1 19 11 33 18 ZZO 1013,4 30 22 0,0
15.04.2018 12:00:00 16,6 7,5 17,8 16,5 11,2 9,1 22 12 33 18 ZZO 1013,6 20 54 0,0
15.04.2018 11:00:00 15,9 7,3 17,4 14,2 10,8 9,1 15 8 42 23 ZZO 1014,1 41 26 0,0
15.04.2018 10:00:00 15,2 6,7 15,8 13,2 10,4 9,1 12 7 16 9 ZZO 1014,7 53 39 0,0
15.04.2018 09:00:00 13,5 7,3 14,3 11,2 10,3 9,1 9 5 14 8 O 1015,2 48 52 0,0
15.04.2018 08:00:00 10,7 5,6 9,8 8,6 10,4 9,0 7 4 13 7 OZO 1016,8 58 17 0,0
15.04.2018 07:00:00 10,3 4,8 8,3 7,8 10,7 9,0 6 3 15 8 O 1017,5 52 0 0,0
15.04.2018 06:00:00 10,7 4,7 8,5 7,9 10,9 9,0 12 7 15 8 O 1017,2 62 0 0,0
15.04.2018 05:00:00 11,0 5,0 8,7 8,1 11,2 9,0 10 5 15 8 O 1017,9 63 0 0,0
15.04.2018 04:00:00 11,2 5,4 9,0 8,5 11,5 9,0 11 6 16 9 O 1018,2 48 0 0,0
15.04.2018 03:00:00 11,6 5,7 9,7 8,8 11,9 9,0 11 6 16 8 O 1018,8 53 0 0,0
15.04.2018 02:00:00 11,1 6,2 8,4 9,1 12,2 9,0 10 5 15 8 O 1019,5 52 0 0,0
15.04.2018 01:00:00 12,0 6,3 10,2 9,5 12,6 9,0 11 6 14 8 O 1019,7 59 0 0,0
15.04.2018 00:00:00 11,5 6,6 9,1 10,0 13,0 9,0 4 2 12 6 ONO 1020,0 38 0 0,0
14.04.2018 23:00:00 11,6 6,6 9,9 10,6 13,4 9,0 7 4 11 6 NNO 1020,0 31 0 0,0
14.04.2018 22:00:00 13,7 6,9 11,7 11,4 13,7 9,0 4 2 11 6 ONO 1019,8 48 0 0,0
14.04.2018 21:00:00 15,3 6,7 13,0 12,4 14,0 9,0 10 6 20 11 ZZO 1019,6 69 0 0,0
14.04.2018 20:00:00 16,5 6,2 15,2 13,5 14,3 9,0 14 7 19 11 ZO 1019,2 70 0 0,0
14.04.2018 19:00:00 17,8 4,7 16,4 14,4 14,4 8,9 14 7 26 14 Z 1018,9 69 4 0,0
14.04.2018 18:00:00 17,9 5,4 16,9 15,2 14,5 8,9 19 10 32 18 ZZO 1018,7 69 11 0,0
14.04.2018 17:00:00 17,5 6,6 17,0 16,0 14,4 8,9 25 14 39 21 ZZO 1019,0 55 9 0,0
14.04.2018 16:00:00 17,9 6,9 18,2 17,7 14,1 8,9 25 14 35 19 ZZO 1019,2 47 30 0,0
14.04.2018 15:00:00 17,4 7,0 18,6 18,8 13,5 8,9 27 14 42 23 ZZO 1019,7 42 55 0,0
14.04.2018 14:00:00 16,3 7,4 17,3 18,8 12,8 8,9 31 17 42 23 ZZO 1019,8 21 56 0,0
14.04.2018 13:00:00 16,4 7,4 18,7 18,5 12,0 8,9 22 12 34 19 ZZO 1019,8 32 53 0,0
14.04.2018 12:00:00 15,2 8,4 18,1 16,4 11,4 8,8 21 12 36 19 ZZO 1020,1 42 53 0,0

tt = temperatuur
td = dauwpunt
tt 5cm = temperatuur 5cm
tt -5cm = temperatuur -5cm
tt -20cm = temperatuur -20cm
tt -100cm = temperatuur -100cm
ff = windsnelheid
fx = windstoten
dd = windrichting
ppp = luchtdruk
vv = zicht
sd = Zonneschijnduur
rr = neerslag

Weerstations in de omgeving